Погода в Никольском

Россия / Астраханская область     46°09′01″N   47°55′06″E
темп.,
°C
ветер,
м/с
пор.,
м/с
влажн.,
%
обл.,
%
осадки,
мм/ч
давл.,
гПа
погр.,
м
11 мая, вт
вт1101:00+10юз36650 0.0 1019259
04:00+9юз36671 0.0 1020191
07:00+10зюз366320 0.0 1020385
10:00+15вюв44445 0.0 10211194
13:00+19вюв57335 0.0 10202308
16:00+19вюв773010 0.0 10202106
19:00+17вюв68415 0.0 10201160
22:00+13в36510 0.0 1019148
12 мая, ср
ср1201:00+12всв48600 0.0 1017162
04:00+13всв3768100 0.0 1017203
07:00+15св3669100 0.0 1017210
10:00+20св345643 0.0 1017775
13:00+24всв3544100 0.0 10152032
16:00+24юв764626 0.0 10151326
19:00+20ююв56500 0.0 1016700
22:00+17юв34610 0.0 1016114
13 мая, чт
чт1301:00+15юв23650 0.0 101561
04:00+15св11722 0.0 101412
07:00+17св1269100 0.0 1015112
10:00+23вюв345155 0.0 1015704
13:00+27юв674013 0.0 10151247
16:00+27ююв79373 0.0 10151058
19:00+23юв57510 0.0 1016462
22:00+19вюв47670 0.0 1017164
14 мая, пт
пт1401:00+19вюв34550 0.0 101667
04:00+19в45570 0.0 101675
07:00+21юв615481 0.0 1017401
10:00+28юв8122423 0.0 1017775
13:00+30юв9121959 0.0 10181024
16:00+29юв101316100 0.0 10181108
19:00+26вюв6112472 0.0 1017536
22:00+21в5134276 0.0 1017252
15 мая, сб
сб1501:00+19в410548 0.0 1017179
04:00+19вюв512542 0.0 1016195
07:00+22юв615460 0.0 1017446
10:00+29юв811250 0.0 10171241
13:00+31юв89210 0.0 10171991
16:00+31юв77212 0.0 10161789
19:00+27вюв57295 0.0 1016558
22:00+21вюв48435 0.0 1016131